Flag for Germany Weather past 2 weeks in Ahaus, North Rhine-Westphalia, Germany

Now
67 °F

Overcast.


Feels Like: 67 °F
Forecast: 49 / 70 °F
Wind: 5 mph from East

Location: Twenthe


UV Index: 3 (Moderate)

Visibility: 8 mi


Pressure: 30.11 "Hg

Humidity: 52%

Dew point: 49 °F

Location of AhausLocation

Historic Weather in Ahaus

°F

Ahaus temperature yesterday

Maximum temperature yesterday: 66 °F (at 5:00 PM)
Minimum temperature yesterday: 43 °F (at 6:00 AM)
Average temperature yesterday: 55 °F

Past Weeks' High & Low Weather Summary

 TemperatureHumidityPressure
High68 °F (Apr 20, 4:00 PM)99% (Apr 12, 1:00 AM)30.47 "Hg (Apr 12, 1:00 AM)
Low28 °F (Apr 16, 7:00 AM)31% (Apr 16, 4:00 PM)29.67 "Hg (Apr 21, 5:00 PM)
Average50 °F72%30.05 "Hg
* Reported Apr 8 2:00 PM — Apr 23 2:00 PM, Ahaus, Weather by CustomWeather, © 2014

Note: Actual official high and low records may vary slightly from our data, if they occured in-between our weather recording intervals... More about our weather records

Advertising

Historic Weather Conditions — Data for Previous 24 hours

 ConditionsComfort  
Time TempWeatherWind HumidityBarometerVisibility
2:00 PM
Apr 23
67 °FOvercast.5 mph52%30.11 "Hg8 mi
1:00 PM66 °FOvercast.3 mph52%30.11 "Hg7 mi
12:00 PM65 °FPassing clouds.3 mph59%30.11 "Hg7 mi
11:00 AM62 °FPassing clouds.3 mph65%30.12 "Hg5 mi
10:00 AM59 °FOvercast.2 mph78%30.11 "Hg3 mi
9:00 AM54 °FFog.1 mph86%30.10 "Hg2 mi
8:00 AM50 °FFog.N/A95%30.09 "Hg1 mi
7:00 AM48 °FFog.No wind95%30.08 "Hg2 mi
6:00 AM48 °FFog.1 mph95%30.07 "Hg2 mi
5:00 AM47 °FFog.N/A96%30.06 "Hg2 mi
4:00 AM45 °FOvercast.1 mph98%30.05 "Hg1 mi
3:00 AM45 °FPassing clouds.No wind99%30.04 "Hg1 mi
2:00 AM46 °FClear.1 mph99%30.04 "Hg1 mi
1:00 AM46 °FFog.No wind99%30.03 "Hg3 mi
12:00 AM45 °FFog.1 mph99%30.01 "Hg4 mi
11:00 PM
Apr 22
47 °FClear.No wind95%30.00 "Hg8 mi
10:00 PM48 °FPassing clouds.No wind93%29.98 "Hg12 mi
9:00 PM52 °FClear.No wind83%29.96 "Hg22 mi
8:00 PM59 °FSunny.No wind65%29.94 "Hg19 mi
7:00 PM63 °FScattered clouds.3 mph55%29.92 "Hg19 mi
6:00 PM62 °FScattered clouds.5 mph56%29.91 "Hg19 mi
5:00 PM66 °FOvercast.5 mph51%29.89 "Hg12 mi
4:00 PM65 °FPartly sunny.3 mph51%29.88 "Hg16 mi
3:00 PM65 °FPartly sunny.3 mph56%29.87 "Hg9 mi
Weather by CustomWeather, © 2014

See weather overview